Forside
METAR-TAF:

METAR-TAF

Lufthavne :

Aurora, Illinois, USA

Breddekreds: 41-46-12N, længdekreds: 088-28-53W, højde: 215 m

Aktuelle vejr

Denne rapport blev lavet for 32 minutter siden, kl. 16:52 UTC
Vind 11 kt fra sydvest
Temperatur 7°C
Fugtighed 57%
Tryk 1015 hPa
Sigt: 14.5 km
skyfri

METAR: KARR 231652Z 23011KT 9SM CLR 07/M01 A2996 RMK AO2 SLP150 T00721006

Tid: 11:24 (17:24 UTC)


TAF: fraværende

Vejrobservationer og prognoser fra mere end 4000 lufthavne (METAR og TAF).

De gule og røde prikker repræsenterer de meteorologiske stationer.

Flyt musen over at se navnet på stationen.

Så klik over at se vejr observationer og prognoser.

At skifte det kort: Klik på de grønne knapper med et sort kors for at zoome ind; på den grønne knap med en bindestreg for at zoome ud; eller på de grønne pile for tilstødende kort.


METAR-TAF: